Zurück zum Katalog

TRISAT-R

LostWissenschaftMEO
NORAD 53108·PAYLOAD·🇸🇮 Slovenia

Gestartet Jul 13, 2022 von Guiana Space Centre

Loading…

Nächste Überflüge (nächste 24 Stunden)

TLE

VeraltetSource: Space-Track

Epoche: Feb 3, 2023, 15:21 UTC

1 53108U 22080D   23034.63990194 -.00000003  00000-0  00000+0 0  9995
2 53108  70.1725   6.2232 0013087 218.2793 141.6938  6.42152542 13071

Verfolge TRISAT-R in Echtzeit mit AllMySat

Download on the App Store